Time,TemperatureF,DewpointF,PressureIn,WindDirection,WindDirectionDegrees,WindSpeedMPH,WindSpeedGustMPH,Humidity,HourlyPrecipIn,Conditions,Clouds,dailyrainin,SoftwareType,DateUTC
2013-01-11 00:05:00,68.0,60.9,30.37,East,90,0.0,10.0,78,0.00,,,0.00,Weather View 32 v70,2013-01-11 05:05:00,
2013-01-11 00:10:00,68.0,60.9,30.37,ENE,67,7.0,10.0,78,0.00,,,0.00,Weather View 32 v70,2013-01-11 05:10:00,
2013-01-11 00:15:00,68.0,60.9,30.37,ENE,67,6.0,10.0,78,0.00,,,0.00,Weather View 32 v70,2013-01-11 05:15:00,
2013-01-11 00:20:00,68.0,60.9,30.37,ENE,67,0.0,10.0,78,0.00,,,0.00,Weather View 32 v70,2013-01-11 05:20:00,
2013-01-11 00:25:00,67.0,59.5,30.37,East,90,0.0,10.0,77,0.00,,,0.00,Weather View 32 v70,2013-01-11 05:25:00,
2013-01-11 00:30:00,67.0,59.2,30.36,East,90,4.0,10.0,76,0.00,,,0.00,Weather View 32 v70,2013-01-11 05:30:00,
2013-01-11 00:40:00,67.0,58.4,30.36,ENE,67,2.0,10.0,74,0.00,,,0.00,Weather View 32 v70,2013-01-11 05:40:00,
2013-01-11 00:45:00,67.0,58.4,30.36,ENE,67,5.0,10.0,74,0.00,,,0.00,Weather View 32 v70,2013-01-11 05:45:00,
2013-01-11 00:55:00,67.0,58.0,30.36,East,90,5.0,10.0,73,0.00,,,0.00,Weather View 32 v70,2013-01-11 05:55:00,
2013-01-11 01:00:00,67.0,58.0,30.35,ENE,67,3.0,10.0,73,0.00,,,0.00,Weather View 32 v70,2013-01-11 06:00:00,
2013-01-11 01:05:00,67.0,58.0,30.35,East,90,0.0,9.0,73,0.00,,,0.00,Weather View 32 v70,2013-01-11 06:05:00,
2013-01-11 01:10:00,67.0,57.6,30.35,East,90,3.0,9.0,72,0.00,,,0.00,Weather View 32 v70,2013-01-11 06:10:00,
2013-01-11 01:15:00,66.0,56.7,30.35,East,90,0.0,9.0,72,0.00,,,0.00,Weather View 32 v70,2013-01-11 06:15:00,
2013-01-11 01:20:00,66.0,56.7,30.35,ENE,67,1.0,9.0,72,0.00,,,0.00,Weather View 32 v70,2013-01-11 06:20:00,
2013-01-11 01:25:00,66.0,56.3,30.35,East,90,0.0,9.0,71,0.00,,,0.00,Weather View 32 v70,2013-01-11 06:25:00,
2013-01-11 01:30:00,66.0,56.3,30.35,East,90,3.0,9.0,71,0.00,,,0.00,Weather View 32 v70,2013-01-11 06:30:00,
2013-01-11 01:40:00,66.0,56.3,30.35,East,90,0.0,8.0,71,0.00,,,0.00,Weather View 32 v70,2013-01-11 06:40:00,
2013-01-11 01:45:00,66.0,55.9,30.35,East,90,1.0,8.0,70,0.00,,,0.00,Weather View 32 v70,2013-01-11 06:45:00,
2013-01-11 01:55:00,66.0,55.9,30.35,East,90,0.0,7.0,70,0.00,,,0.00,Weather View 32 v70,2013-01-11 06:55:00,
2013-01-11 02:00:00,66.0,55.5,30.35,East,90,0.0,7.0,69,0.00,,,0.00,Weather View 32 v70,2013-01-11 07:00:00,
2013-01-11 02:05:00,66.0,55.5,30.34,East,90,0.0,7.0,69,0.00,,,0.00,Weather View 32 v70,2013-01-11 07:05:00,
2013-01-11 02:10:00,66.0,55.1,30.34,ENE,67,0.0,6.0,68,0.00,,,0.00,Weather View 32 v70,2013-01-11 07:10:00,
2013-01-11 02:15:00,66.0,54.7,30.34,East,90,0.0,6.0,67,0.00,,,0.00,Weather View 32 v70,2013-01-11 07:15:00,
2013-01-11 02:20:00,66.0,54.7,30.34,East,90,1.0,6.0,67,0.00,,,0.00,Weather View 32 v70,2013-01-11 07:20:00,
2013-01-11 02:25:00,66.0,54.7,30.33,East,90,2.0,6.0,67,0.00,,,0.00,Weather View 32 v70,2013-01-11 07:25:00,
2013-01-11 02:30:00,65.0,53.7,30.33,East,90,0.0,6.0,67,0.00,,,0.00,Weather View 32 v70,2013-01-11 07:30:00,
2013-01-11 02:35:00,65.0,53.3,30.34,East,90,0.0,5.0,66,0.00,,,0.00,Weather View 32 v70,2013-01-11 07:35:00,
2013-01-11 02:40:00,65.0,53.3,30.34,ENE,67,0.0,5.0,66,0.00,,,0.00,Weather View 32 v70,2013-01-11 07:40:00,
2013-01-11 02:45:00,65.0,52.9,30.34,East,90,0.0,5.0,65,0.00,,,0.00,Weather View 32 v70,2013-01-11 07:45:00,
2013-01-11 02:50:00,65.0,52.9,30.34,East,90,0.0,5.0,65,0.00,,,0.00,Weather View 32 v70,2013-01-11 07:50:00,
2013-01-11 02:55:00,65.0,52.5,30.33,East,90,3.0,5.0,64,0.00,,,0.00,Weather View 32 v70,2013-01-11 07:55:00,
2013-01-11 03:00:00,65.0,52.1,30.33,East,90,1.0,6.0,63,0.00,,,0.00,Weather View 32 v70,2013-01-11 08:00:00,
2013-01-11 03:05:00,65.0,51.6,30.33,ENE,67,0.0,6.0,62,0.00,,,0.00,Weather View 32 v70,2013-01-11 08:05:00,
2013-01-11 03:15:00,65.0,51.6,30.33,East,90,2.0,6.0,62,0.00,,,0.00,Weather View 32 v70,2013-01-11 08:15:00,
2013-01-11 03:20:00,65.0,51.6,30.33,East,90,4.0,6.0,62,0.00,,,0.00,Weather View 32 v70,2013-01-11 08:20:00,
2013-01-11 03:25:00,65.0,51.2,30.33,East,90,1.0,6.0,61,0.00,,,0.00,Weather View 32 v70,2013-01-11 08:25:00,
2013-01-11 03:30:00,65.0,51.2,30.33,East,90,1.0,6.0,61,0.00,,,0.00,Weather View 32 v70,2013-01-11 08:30:00,
2013-01-11 03:35:00,65.0,50.7,30.32,East,90,2.0,7.0,60,0.00,,,0.00,Weather View 32 v70,2013-01-11 08:35:00,
2013-01-11 03:40:00,65.0,50.7,30.32,East,90,6.0,8.0,60,0.00,,,0.00,Weather View 32 v70,2013-01-11 08:40:00,
2013-01-11 03:45:00,65.0,50.7,30.31,East,90,2.0,8.0,60,0.00,,,0.00,Weather View 32 v70,2013-01-11 08:45:00,
2013-01-11 03:50:00,65.0,50.7,30.31,East,90,4.0,8.0,60,0.00,,,0.00,Weather View 32 v70,2013-01-11 08:50:00,
2013-01-11 03:55:00,65.0,50.7,30.31,ENE,67,4.0,9.0,60,0.00,,,0.00,Weather View 32 v70,2013-01-11 08:55:00,
2013-01-11 04:00:00,65.0,50.7,30.31,East,90,1.0,9.0,60,0.00,,,0.00,Weather View 32 v70,2013-01-11 09:00:00,
2013-01-11 04:05:00,65.0,50.7,30.31,East,90,1.0,9.0,60,0.00,,,0.00,Weather View 32 v70,2013-01-11 09:05:00,
2013-01-11 04:10:00,65.0,50.7,30.31,East,90,4.0,9.0,60,0.00,,,0.00,Weather View 32 v70,2013-01-11 09:10:00,
2013-01-11 04:15:00,65.0,50.7,30.31,East,90,1.0,9.0,60,0.00,,,0.00,Weather View 32 v70,2013-01-11 09:15:00,
2013-01-11 04:20:00,65.0,50.7,30.30,East,90,2.0,9.0,60,0.00,,,0.00,Weather View 32 v70,2013-01-11 09:20:00,
2013-01-11 04:30:00,65.0,50.3,30.30,SSE,157,4.0,9.0,59,0.00,,,0.00,Weather View 32 v70,2013-01-11 09:30:00,
2013-01-11 04:35:00,65.0,50.3,30.30,ENE,67,0.0,9.0,59,0.00,,,0.00,Weather View 32 v70,2013-01-11 09:35:00,
2013-01-11 04:40:00,65.0,50.3,30.30,ENE,67,0.0,9.0,59,0.00,,,0.00,Weather View 32 v70,2013-01-11 09:40:00,
2013-01-11 04:45:00,64.0,49.3,30.30,ENE,67,0.0,9.0,59,0.00,,,0.00,Weather View 32 v70,2013-01-11 09:45:00,
2013-01-11 04:50:00,64.0,49.3,30.30,ENE,67,0.0,9.0,59,0.00,,,0.00,Weather View 32 v70,2013-01-11 09:50:00,
2013-01-11 04:55:00,64.0,49.3,30.30,ENE,67,0.0,7.0,59,0.00,,,0.00,Weather View 32 v70,2013-01-11 09:55:00,
2013-01-11 05:00:00,64.0,48.9,30.31,ENE,67,3.0,6.0,58,0.00,,,0.00,Weather View 32 v70,2013-01-11 10:00:00,
2013-01-11 05:05:00,64.0,48.4,30.30,ENE,67,0.0,6.0,57,0.00,,,0.00,Weather View 32 v70,2013-01-11 10:05:00,
2013-01-11 05:10:00,64.0,48.4,30.31,ENE,67,0.0,6.0,57,0.00,,,0.00,Weather View 32 v70,2013-01-11 10:10:00,
2013-01-11 05:15:00,64.0,47.9,30.31,ENE,67,1.0,6.0,56,0.00,,,0.00,Weather View 32 v70,2013-01-11 10:15:00,
2013-01-11 05:20:00,64.0,47.5,30.30,East,90,1.0,6.0,55,0.00,,,0.00,Weather View 32 v70,2013-01-11 10:20:00,
2013-01-11 05:25:00,65.0,48.4,30.29,East,90,1.0,6.0,55,0.00,,,0.00,Weather View 32 v70,2013-01-11 10:25:00,
2013-01-11 05:30:00,65.0,48.4,30.29,East,90,1.0,6.0,55,0.00,,,0.00,Weather View 32 v70,2013-01-11 10:30:00,
2013-01-11 05:40:00,65.0,47.9,30.30,East,90,1.0,6.0,54,0.00,,,0.00,Weather View 32 v70,2013-01-11 10:40:00,
2013-01-11 05:45:00,65.0,47.9,30.30,ENE,67,2.0,6.0,54,0.00,,,0.00,Weather View 32 v70,2013-01-11 10:45:00,
2013-01-11 05:50:00,65.0,47.9,30.30,East,90,4.0,6.0,54,0.00,,,0.00,Weather View 32 v70,2013-01-11 10:50:00,
2013-01-11 05:55:00,65.0,47.9,30.30,ENE,67,1.0,6.0,54,0.00,,,0.00,Weather View 32 v70,2013-01-11 10:55:00,
2013-01-11 06:00:00,65.0,47.9,30.30,ENE,67,0.0,6.0,54,0.00,,,0.00,Weather View 32 v70,2013-01-11 11:00:00,
2013-01-11 06:10:00,65.0,47.9,30.29,East,90,0.0,6.0,54,0.00,,,0.00,Weather View 32 v70,2013-01-11 11:10:00,
2013-01-11 06:15:00,65.0,47.9,30.29,ENE,67,0.0,6.0,54,0.00,,,0.00,Weather View 32 v70,2013-01-11 11:15:00,
2013-01-11 06:20:00,65.0,47.9,30.29,East,90,1.0,6.0,54,0.00,,,0.00,Weather View 32 v70,2013-01-11 11:20:00,
2013-01-11 06:25:00,65.0,47.9,30.30,East,90,1.0,6.0,54,0.00,,,0.00,Weather View 32 v70,2013-01-11 11:25:00,
2013-01-11 06:30:00,65.0,47.9,30.30,ENE,67,1.0,6.0,54,0.00,,,0.00,Weather View 32 v70,2013-01-11 11:30:00,
2013-01-11 06:35:00,65.0,47.9,30.30,East,90,3.0,6.0,54,0.00,,,0.00,Weather View 32 v70,2013-01-11 11:35:00,
2013-01-11 06:40:00,65.0,47.9,30.30,East,90,3.0,6.0,54,0.00,,,0.00,Weather View 32 v70,2013-01-11 11:40:00,
2013-01-11 06:45:00,65.0,47.9,30.30,ENE,67,3.0,7.0,54,0.00,,,0.00,Weather View 32 v70,2013-01-11 11:45:00,
2013-01-11 06:50:00,65.0,47.9,30.30,ENE,67,4.0,7.0,54,0.00,,,0.00,Weather View 32 v70,2013-01-11 11:50:00,
2013-01-11 07:00:00,65.0,47.9,30.31,ENE,67,2.0,7.0,54,0.00,,,0.00,Weather View 32 v70,2013-01-11 12:00:00,
2013-01-11 07:10:00,65.0,47.4,30.31,East,90,2.0,7.0,53,0.00,,,0.00,Weather View 32 v70,2013-01-11 12:10:00,
2013-01-11 07:15:00,65.0,47.4,30.31,East,90,4.0,7.0,53,0.00,,,0.00,Weather View 32 v70,2013-01-11 12:15:00,
2013-01-11 07:20:00,65.0,47.4,30.31,ENE,67,1.0,7.0,53,0.00,,,0.00,Weather View 32 v70,2013-01-11 12:20:00,
2013-01-11 07:25:00,65.0,47.4,30.31,ENE,67,1.0,7.0,53,0.00,,,0.00,Weather View 32 v70,2013-01-11 12:25:00,
2013-01-11 07:30:00,65.0,47.4,30.31,ENE,67,2.0,7.0,53,0.00,,,0.00,Weather View 32 v70,2013-01-11 12:30:00,
2013-01-11 07:35:00,65.0,47.4,30.31,ENE,67,3.0,7.0,53,0.00,,,0.00,Weather View 32 v70,2013-01-11 12:35:00,
2013-01-11 07:40:00,66.0,48.3,30.32,ENE,67,3.0,7.0,53,0.00,,,0.00,Weather View 32 v70,2013-01-11 12:40:00,
2013-01-11 07:45:00,66.0,48.3,30.32,ENE,67,1.0,6.0,53,0.00,,,0.00,Weather View 32 v70,2013-01-11 12:45:00,
2013-01-11 07:50:00,66.0,48.3,30.32,ENE,67,2.0,6.0,53,0.00,,,0.00,Weather View 32 v70,2013-01-11 12:50:00,
2013-01-11 07:55:00,66.0,48.8,30.32,ENE,67,3.0,6.0,54,0.00,,,0.00,Weather View 32 v70,2013-01-11 12:55:00,
2013-01-11 08:00:00,66.0,48.8,30.32,ENE,67,2.0,6.0,54,0.00,,,0.00,Weather View 32 v70,2013-01-11 13:00:00,
2013-01-11 08:10:00,66.0,49.8,30.33,ENE,67,2.0,6.0,56,0.00,,,0.00,Weather View 32 v70,2013-01-11 13:10:00,
2013-01-11 08:15:00,66.0,50.3,30.33,ENE,67,0.0,6.0,57,0.00,,,0.00,Weather View 32 v70,2013-01-11 13:15:00,
2013-01-11 08:20:00,67.0,51.2,30.33,ENE,67,7.0,7.0,57,0.00,,,0.00,Weather View 32 v70,2013-01-11 13:20:00,
2013-01-11 08:30:00,67.0,52.2,30.33,ENE,67,6.0,7.0,59,0.00,,,0.00,Weather View 32 v70,2013-01-11 13:30:00,
2013-01-11 08:35:00,67.0,52.6,30.34,East,90,0.0,7.0,60,0.00,,,0.00,Weather View 32 v70,2013-01-11 13:35:00,
2013-01-11 08:40:00,67.0,52.6,30.34,ENE,67,0.0,7.0,60,0.00,,,0.00,Weather View 32 v70,2013-01-11 13:40:00,
2013-01-11 08:45:00,68.0,54.9,30.34,ENE,67,3.0,7.0,63,0.00,,,0.00,Weather View 32 v70,2013-01-11 13:45:00,
2013-01-11 08:50:00,68.0,55.8,30.34,ENE,67,3.0,8.0,65,0.00,,,0.00,Weather View 32 v70,2013-01-11 13:50:00,
2013-01-11 08:55:00,68.0,56.2,30.35,ENE,67,4.0,8.0,66,0.00,,,0.00,Weather View 32 v70,2013-01-11 13:55:00,
2013-01-11 09:00:00,68.0,56.2,30.35,East,90,0.0,8.0,66,0.00,,,0.00,Weather View 32 v70,2013-01-11 14:00:00,
2013-01-11 09:05:00,69.0,58.0,30.35,East,90,3.0,8.0,68,0.00,,,0.00,Weather View 32 v70,2013-01-11 14:05:00,
2013-01-11 09:10:00,69.0,58.4,30.35,East,90,1.0,8.0,69,0.00,,,0.00,Weather View 32 v70,2013-01-11 14:10:00,
2013-01-11 09:15:00,69.0,58.8,30.36,ENE,67,1.0,8.0,70,0.00,,,0.00,Weather View 32 v70,2013-01-11 14:15:00,
2013-01-11 09:20:00,70.0,60.1,30.36,East,90,1.0,10.0,71,0.00,,,0.00,Weather View 32 v70,2013-01-11 14:20:00,
2013-01-11 09:25:00,71.0,61.9,30.37,East,90,7.0,10.0,73,0.00,,,0.00,Weather View 32 v70,2013-01-11 14:25:00,
2013-01-11 09:30:00,71.0,62.6,30.37,ENE,67,6.0,12.0,75,0.00,,,0.00,Weather View 32 v70,2013-01-11 14:30:00,
2013-01-11 09:35:00,71.0,62.6,30.37,East,90,5.0,12.0,75,0.00,,,0.00,Weather View 32 v70,2013-01-11 14:35:00,
2013-01-11 09:45:00,70.0,61.7,30.37,East,90,7.0,12.0,75,0.00,,,0.00,Weather View 32 v70,2013-01-11 14:45:00,
2013-01-11 09:50:00,70.0,61.7,30.36,East,90,6.0,12.0,75,0.00,,,0.00,Weather View 32 v70,2013-01-11 14:50:00,
2013-01-11 09:55:00,70.0,61.3,30.36,East,90,12.0,16.0,74,0.00,,,0.00,Weather View 32 v70,2013-01-11 14:55:00,
2013-01-11 10:00:00,70.0,61.7,30.36,SSE,157,1.0,16.0,75,0.00,,,0.00,Weather View 32 v70,2013-01-11 15:00:00,
2013-01-11 10:05:00,71.0,63.0,30.36,East,90,10.0,16.0,76,0.00,,,0.00,Weather View 32 v70,2013-01-11 15:05:00,
2013-01-11 10:10:00,71.0,63.0,30.36,SSE,157,7.0,16.0,76,0.00,,,0.00,Weather View 32 v70,2013-01-11 15:10:00,
2013-01-11 10:15:00,71.0,63.4,30.36,East,90,10.0,16.0,77,0.00,,,0.00,Weather View 32 v70,2013-01-11 15:15:00,
2013-01-11 10:20:00,72.0,64.7,30.36,East,90,8.0,16.0,78,0.00,,,0.00,Weather View 32 v70,2013-01-11 15:20:00,
2013-01-11 10:25:00,72.0,64.7,30.37,ENE,67,9.0,16.0,78,0.00,,,0.00,Weather View 32 v70,2013-01-11 15:25:00,
2013-01-11 10:30:00,72.0,64.7,30.37,East,90,8.0,17.0,78,0.00,,,0.00,Weather View 32 v70,2013-01-11 15:30:00,
2013-01-11 10:35:00,73.0,66.1,30.37,SSE,157,4.0,17.0,79,0.00,,,0.00,Weather View 32 v70,2013-01-11 15:35:00,
2013-01-11 10:40:00,73.0,66.1,30.38,East,90,7.0,17.0,79,0.00,,,0.00,Weather View 32 v70,2013-01-11 15:40:00,
2013-01-11 10:45:00,73.0,66.1,30.37,SSE,157,6.0,19.0,79,0.00,,,0.00,Weather View 32 v70,2013-01-11 15:45:00,
2013-01-11 10:50:00,73.0,66.1,30.37,East,90,6.0,19.0,79,0.00,,,0.00,Weather View 32 v70,2013-01-11 15:50:00,
2013-01-11 10:55:00,73.0,66.1,30.37,East,90,6.0,19.0,79,0.00,,,0.00,Weather View 32 v70,2013-01-11 15:55:00,
2013-01-11 11:00:00,74.0,67.4,30.37,SSE,157,13.0,19.0,80,0.00,,,0.00,Weather View 32 v70,2013-01-11 16:00:00,
2013-01-11 11:05:00,74.0,67.4,30.37,SSE,157,8.0,19.0,80,0.00,,,0.00,Weather View 32 v70,2013-01-11 16:05:00,
2013-01-11 11:10:00,74.0,67.8,30.37,East,90,7.0,19.0,81,0.00,,,0.00,Weather View 32 v70,2013-01-11 16:10:00,
2013-01-11 11:15:00,74.0,67.8,30.37,East,90,10.0,19.0,81,0.00,,,0.00,Weather View 32 v70,2013-01-11 16:15:00,
2013-01-11 11:20:00,74.0,68.1,30.37,East,90,14.0,19.0,82,0.00,,,0.00,Weather View 32 v70,2013-01-11 16:20:00,
2013-01-11 11:25:00,74.0,68.1,30.37,SSE,157,9.0,19.0,82,0.00,,,0.00,Weather View 32 v70,2013-01-11 16:25:00,
2013-01-11 11:35:00,75.0,69.5,30.36,SSE,157,6.0,20.0,83,0.00,,,0.00,Weather View 32 v70,2013-01-11 16:35:00,
2013-01-11 11:40:00,75.0,69.8,30.36,East,90,13.0,20.0,84,0.00,,,0.00,Weather View 32 v70,2013-01-11 16:40:00,
2013-01-11 11:45:00,76.0,71.1,30.36,SSE,157,9.0,20.0,85,0.00,,,0.00,Weather View 32 v70,2013-01-11 16:45:00,
2013-01-11 11:50:00,75.0,69.8,30.36,East,90,10.0,20.0,84,0.00,,,0.00,Weather View 32 v70,2013-01-11 16:50:00,
2013-01-11 11:55:00,75.0,69.8,30.35,SSE,157,10.0,20.0,84,0.00,,,0.00,Weather View 32 v70,2013-01-11 16:55:00,
2013-01-11 12:00:00,76.0,71.1,30.35,East,90,6.0,20.0,85,0.00,,,0.00,Weather View 32 v70,2013-01-11 17:00:00,
2013-01-11 12:05:00,76.0,71.1,30.35,East,90,13.0,20.0,85,0.00,,,0.00,Weather View 32 v70,2013-01-11 17:05:00,
2013-01-11 12:10:00,76.0,71.1,30.35,East,90,9.0,20.0,85,0.00,,,0.00,Weather View 32 v70,2013-01-11 17:10:00,
2013-01-11 12:15:00,77.0,72.1,30.35,SSE,157,10.0,20.0,85,0.00,,,0.00,Weather View 32 v70,2013-01-11 17:15:00,
2013-01-11 12:20:00,77.0,72.1,30.35,East,90,9.0,20.0,85,0.00,,,0.00,Weather View 32 v70,2013-01-11 17:20:00,
2013-01-11 12:25:00,77.0,72.1,30.35,East,90,12.0,20.0,85,0.00,,,0.00,Weather View 32 v70,2013-01-11 17:25:00,
2013-01-11 12:30:00,77.0,72.1,30.34,East,90,6.0,20.0,85,0.00,,,0.00,Weather View 32 v70,2013-01-11 17:30:00,
2013-01-11 12:35:00,77.0,72.1,30.34,SSE,157,8.0,19.0,85,0.00,,,0.00,Weather View 32 v70,2013-01-11 17:35:00,
2013-01-11 12:40:00,77.0,72.1,30.34,East,90,15.0,19.0,85,0.00,,,0.00,Weather View 32 v70,2013-01-11 17:40:00,
2013-01-11 12:50:00,78.0,73.1,30.33,SSE,157,13.0,19.0,85,0.00,,,0.00,Weather View 32 v70,2013-01-11 17:50:00,
2013-01-11 12:55:00,78.0,73.1,30.33,SSE,157,12.0,19.0,85,0.00,,,0.00,Weather View 32 v70,2013-01-11 17:55:00,
2013-01-11 13:00:00,77.0,72.1,30.33,SSE,157,15.0,19.0,85,0.00,,,0.00,Weather View 32 v70,2013-01-11 18:00:00,
2013-01-11 13:05:00,77.0,72.1,30.33,SSE,157,4.0,18.0,85,0.00,,,0.00,Weather View 32 v70,2013-01-11 18:05:00,
2013-01-11 13:10:00,76.0,71.1,30.33,East,90,8.0,18.0,85,0.00,,,0.00,Weather View 32 v70,2013-01-11 18:10:00,
2013-01-11 13:15:00,77.0,72.1,30.32,East,90,6.0,18.0,85,0.00,,,0.00,Weather View 32 v70,2013-01-11 18:15:00,
2013-01-11 13:20:00,78.0,73.1,30.32,East,90,7.0,18.0,85,0.00,,,0.00,Weather View 32 v70,2013-01-11 18:20:00,
2013-01-11 13:25:00,77.0,72.1,30.32,East,90,3.0,18.0,85,0.00,,,0.00,Weather View 32 v70,2013-01-11 18:25:00,
2013-01-11 13:30:00,77.0,72.1,30.31,East,90,6.0,18.0,85,0.00,,,0.00,Weather View 32 v70,2013-01-11 18:30:00,
2013-01-11 13:35:00,78.0,73.1,30.32,SSE,157,10.0,18.0,85,0.00,,,0.00,Weather View 32 v70,2013-01-11 18:35:00,
2013-01-11 13:40:00,77.0,72.1,30.32,East,90,7.0,18.0,85,0.00,,,0.00,Weather View 32 v70,2013-01-11 18:40:00,
2013-01-11 13:45:00,77.0,72.1,30.31,East,90,8.0,18.0,85,0.00,,,0.00,Weather View 32 v70,2013-01-11 18:45:00,
2013-01-11 13:50:00,78.0,73.1,30.31,East,90,4.0,18.0,85,0.00,,,0.00,Weather View 32 v70,2013-01-11 18:50:00,
2013-01-11 13:55:00,78.0,73.1,30.31,ENE,67,3.0,17.0,85,0.00,,,0.00,Weather View 32 v70,2013-01-11 18:55:00,
2013-01-11 14:00:00,79.0,74.1,30.31,East,90,9.0,15.0,85,0.00,,,0.00,Weather View 32 v70,2013-01-11 19:00:00,
2013-01-11 14:05:00,79.0,74.1,30.31,SSE,157,7.0,15.0,85,0.00,,,0.00,Weather View 32 v70,2013-01-11 19:05:00,
2013-01-11 14:10:00,79.0,74.1,30.31,East,90,9.0,15.0,85,0.00,,,0.00,Weather View 32 v70,2013-01-11 19:10:00,
2013-01-11 14:15:00,79.0,74.1,30.31,East,90,12.0,15.0,85,0.00,,,0.00,Weather View 32 v70,2013-01-11 19:15:00,
2013-01-11 14:20:00,78.0,73.1,30.31,SSE,157,7.0,15.0,85,0.00,,,0.00,Weather View 32 v70,2013-01-11 19:20:00,
2013-01-11 14:30:00,79.0,74.1,30.31,SSE,157,9.0,15.0,85,0.00,,,0.00,Weather View 32 v70,2013-01-11 19:30:00,
2013-01-11 14:35:00,80.0,75.1,30.31,SSE,157,8.0,15.0,85,0.00,,,0.00,Weather View 32 v70,2013-01-11 19:35:00,
2013-01-11 14:40:00,80.0,75.4,30.31,East,90,5.0,15.0,86,0.00,,,0.00,Weather View 32 v70,2013-01-11 19:40:00,
2013-01-11 14:45:00,79.0,74.4,30.31,SSE,157,9.0,16.0,86,0.00,,,0.00,Weather View 32 v70,2013-01-11 19:45:00,
2013-01-11 14:50:00,79.0,74.4,30.31,East,90,4.0,16.0,86,0.00,,,0.00,Weather View 32 v70,2013-01-11 19:50:00,
2013-01-11 14:55:00,79.0,74.4,30.31,SSE,157,9.0,16.0,86,0.00,,,0.00,Weather View 32 v70,2013-01-11 19:55:00,
2013-01-11 15:00:00,79.0,74.4,30.31,SSE,157,7.0,16.0,86,0.00,,,0.00,Weather View 32 v70,2013-01-11 20:00:00,
2013-01-11 15:05:00,79.0,74.4,30.31,East,90,6.0,16.0,86,0.00,,,0.00,Weather View 32 v70,2013-01-11 20:05:00,
2013-01-11 15:10:00,80.0,75.4,30.31,East,90,3.0,16.0,86,0.00,,,0.00,Weather View 32 v70,2013-01-11 20:10:00,
2013-01-11 15:15:00,80.0,75.4,30.31,East,90,3.0,16.0,86,0.00,,,0.00,Weather View 32 v70,2013-01-11 20:15:00,
2013-01-11 15:20:00,80.0,75.4,30.31,East,90,4.0,16.0,86,0.00,,,0.00,Weather View 32 v70,2013-01-11 20:20:00,
2013-01-11 15:25:00,79.0,74.4,30.31,SSE,157,7.0,16.0,86,0.00,,,0.00,Weather View 32 v70,2013-01-11 20:25:00,
2013-01-11 15:30:00,79.0,74.4,30.31,ENE,67,6.0,16.0,86,0.00,,,0.00,Weather View 32 v70,2013-01-11 20:30:00,
2013-01-11 15:38:00,79.0,74.4,30.31,East,90,6.0,16.0,86,0.00,,,0.00,Weather View 32 v70,2013-01-11 20:38:00,
2013-01-11 15:45:00,80.0,75.4,30.31,East,90,4.0,15.0,86,0.00,,,0.00,Weather View 32 v70,2013-01-11 20:45:00,
2013-01-11 15:50:00,79.0,74.4,30.31,East,90,5.0,15.0,86,0.00,,,0.00,Weather View 32 v70,2013-01-11 20:50:00,
2013-01-11 15:55:00,80.0,75.4,30.31,East,90,3.0,13.0,86,0.00,,,0.00,Weather View 32 v70,2013-01-11 20:55:00,
2013-01-11 16:00:00,79.0,74.4,30.31,ENE,67,3.0,13.0,86,0.00,,,0.00,Weather View 32 v70,2013-01-11 21:00:00,
2013-01-11 16:05:00,79.0,74.4,30.31,East,90,11.0,13.0,86,0.00,,,0.00,Weather View 32 v70,2013-01-11 21:05:00,
2013-01-11 16:10:00,79.0,74.4,30.30,ENE,67,10.0,12.0,86,0.00,,,0.00,Weather View 32 v70,2013-01-11 21:10:00,
2013-01-11 16:15:00,79.0,74.4,30.30,East,90,5.0,12.0,86,0.00,,,0.00,Weather View 32 v70,2013-01-11 21:15:00,
2013-01-11 16:20:00,79.0,74.4,30.30,East,90,8.0,12.0,86,0.00,,,0.00,Weather View 32 v70,2013-01-11 21:20:00,
2013-01-11 16:25:00,79.0,74.4,30.30,East,90,5.0,12.0,86,0.00,,,0.00,Weather View 32 v70,2013-01-11 21:25:00,
2013-01-11 16:30:00,79.0,74.4,30.30,East,90,7.0,12.0,86,0.00,,,0.00,Weather View 32 v70,2013-01-11 21:30:00,
2013-01-11 16:35:00,79.0,74.4,30.30,SSE,157,5.0,12.0,86,0.00,,,0.00,Weather View 32 v70,2013-01-11 21:35:00,
2013-01-11 16:40:00,79.0,74.4,30.29,East,90,4.0,12.0,86,0.00,,,0.00,Weather View 32 v70,2013-01-11 21:40:00,
2013-01-11 16:45:00,79.0,74.4,30.30,SSE,157,4.0,12.0,86,0.00,,,0.00,Weather View 32 v70,2013-01-11 21:45:00,
2013-01-11 16:55:00,79.0,74.4,30.30,WSW,247,2.0,12.0,86,0.00,,,0.00,Weather View 32 v70,2013-01-11 21:55:00,
2013-01-11 17:00:00,79.0,74.4,30.30,WSW,247,8.0,12.0,86,0.00,,,0.00,Weather View 32 v70,2013-01-11 22:00:00,
2013-01-11 17:05:00,78.0,73.5,30.30,SSE,157,4.0,12.0,86,0.00,,,0.00,Weather View 32 v70,2013-01-11 22:05:00,
2013-01-11 17:10:00,77.0,72.5,30.29,WSW,247,9.0,12.0,86,0.00,,,0.00,Weather View 32 v70,2013-01-11 22:10:00,
2013-01-11 17:15:00,77.0,72.5,30.29,SSE,157,5.0,12.0,86,0.00,,,0.00,Weather View 32 v70,2013-01-11 22:15:00,
2013-01-11 17:20:00,76.0,71.5,30.29,South,180,7.0,12.0,86,0.00,,,0.00,Weather View 32 v70,2013-01-11 22:20:00,
2013-01-11 17:25:00,76.0,71.5,30.29,WSW,247,7.0,12.0,86,0.00,,,0.00,Weather View 32 v70,2013-01-11 22:25:00,
2013-01-11 17:30:00,76.0,71.1,30.29,South,180,6.0,12.0,85,0.00,,,0.00,Weather View 32 v70,2013-01-11 22:30:00,
2013-01-11 17:35:00,75.0,69.8,30.29,WSW,247,5.0,12.0,84,0.00,,,0.00,Weather View 32 v70,2013-01-11 22:35:00,
2013-01-11 17:40:00,75.0,69.8,30.29,South,180,7.0,12.0,84,0.00,,,0.00,Weather View 32 v70,2013-01-11 22:40:00,
2013-01-11 17:45:00,74.0,68.8,30.29,WSW,247,7.0,12.0,84,0.00,,,0.00,Weather View 32 v70,2013-01-11 22:45:00,
2013-01-11 17:50:00,74.0,68.8,30.29,WSW,247,0.0,12.0,84,0.00,,,0.00,Weather View 32 v70,2013-01-11 22:50:00,
2013-01-11 18:00:00,73.0,67.9,30.28,WSW,247,7.0,12.0,84,0.00,,,0.00,Weather View 32 v70,2013-01-11 23:00:00,
2013-01-11 18:05:00,73.0,67.9,30.29,WSW,247,3.0,11.0,84,0.00,,,0.00,Weather View 32 v70,2013-01-11 23:05:00,
2013-01-11 18:10:00,73.0,67.9,30.28,WSW,247,5.0,11.0,84,0.00,,,0.00,Weather View 32 v70,2013-01-11 23:10:00,
2013-01-11 18:15:00,73.0,67.9,30.28,WSW,247,5.0,10.0,84,0.00,,,0.00,Weather View 32 v70,2013-01-11 23:15:00,
2013-01-11 18:20:00,73.0,67.9,30.28,WSW,247,6.0,10.0,84,0.00,,,0.00,Weather View 32 v70,2013-01-11 23:20:00,
2013-01-11 18:25:00,73.0,67.9,30.28,WSW,247,6.0,10.0,84,0.00,,,0.00,Weather View 32 v70,2013-01-11 23:25:00,
2013-01-11 18:30:00,73.0,67.9,30.28,WSW,247,3.0,10.0,84,0.00,,,0.00,Weather View 32 v70,2013-01-11 23:30:00,
2013-01-11 18:35:00,73.0,67.9,30.28,WSW,247,6.0,10.0,84,0.00,,,0.00,Weather View 32 v70,2013-01-11 23:35:00,
2013-01-11 18:40:00,73.0,67.9,30.28,South,180,6.0,10.0,84,0.00,,,0.00,Weather View 32 v70,2013-01-11 23:40:00,
2013-01-11 18:50:00,72.0,66.9,30.28,South,180,3.0,9.0,84,0.00,,,0.00,Weather View 32 v70,2013-01-11 23:50:00,
2013-01-11 18:55:00,72.0,66.9,30.27,SSE,157,0.0,9.0,84,0.00,,,0.00,Weather View 32 v70,2013-01-11 23:55:00,
2013-01-11 19:00:00,72.0,66.9,30.28,SSE,157,0.0,9.0,84,0.00,,,0.00,Weather View 32 v70,2013-01-12 00:00:00,
2013-01-11 19:05:00,72.0,66.9,30.28,SSE,157,2.0,9.0,84,0.00,,,0.00,Weather View 32 v70,2013-01-12 00:05:00,
2013-01-11 19:10:00,72.0,66.9,30.28,SSE,157,0.0,9.0,84,0.00,,,0.00,Weather View 32 v70,2013-01-12 00:10:00,
2013-01-11 19:15:00,71.0,65.9,30.28,SSE,157,0.0,9.0,84,0.00,,,0.00,Weather View 32 v70,2013-01-12 00:15:00,
2013-01-11 19:25:00,71.0,65.9,30.28,SSE,157,1.0,9.0,84,0.00,,,0.00,Weather View 32 v70,2013-01-12 00:25:00,
2013-01-11 19:30:00,71.0,65.9,30.28,SSE,157,2.0,7.0,84,0.00,,,0.00,Weather View 32 v70,2013-01-12 00:30:00,
2013-01-11 19:35:00,71.0,65.9,30.28,SSE,157,1.0,7.0,84,0.00,,,0.00,Weather View 32 v70,2013-01-12 00:35:00,
2013-01-11 19:40:00,71.0,65.9,30.28,SSE,157,0.0,7.0,84,0.00,,,0.00,Weather View 32 v70,2013-01-12 00:40:00,
2013-01-11 19:45:00,71.0,65.9,30.28,East,90,0.0,7.0,84,0.00,,,0.00,Weather View 32 v70,2013-01-12 00:45:00,
2013-01-11 19:50:00,71.0,65.9,30.28,East,90,1.0,7.0,84,0.00,,,0.00,Weather View 32 v70,2013-01-12 00:50:00,
2013-01-11 19:55:00,71.0,65.9,30.28,ENE,67,0.0,6.0,84,0.00,,,0.00,Weather View 32 v70,2013-01-12 00:55:00,
2013-01-11 20:00:00,71.0,65.9,30.29,East,90,0.0,6.0,84,0.00,,,0.00,Weather View 32 v70,2013-01-12 01:00:00,
2013-01-11 20:05:00,71.0,65.9,30.28,East,90,0.0,6.0,84,0.00,,,0.00,Weather View 32 v70,2013-01-12 01:05:00,
2013-01-11 20:10:00,71.0,65.9,30.28,East,90,0.0,6.0,84,0.00,,,0.00,Weather View 32 v70,2013-01-12 01:10:00,
2013-01-11 20:15:00,71.0,65.9,30.28,East,90,0.0,6.0,84,0.00,,,0.00,Weather View 32 v70,2013-01-12 01:15:00,
2013-01-11 20:20:00,71.0,65.9,30.28,ENE,67,0.0,6.0,84,0.00,,,0.00,Weather View 32 v70,2013-01-12 01:20:00,
2013-01-11 20:25:00,70.0,64.9,30.29,ENE,67,0.0,6.0,84,0.00,,,0.00,Weather View 32 v70,2013-01-12 01:25:00,
2013-01-11 20:30:00,70.0,64.9,30.28,East,90,0.0,6.0,84,0.00,,,0.00,Weather View 32 v70,2013-01-12 01:30:00,
2013-01-11 20:35:00,71.0,65.6,30.29,East,90,4.0,6.0,83,0.00,,,0.00,Weather View 32 v70,2013-01-12 01:35:00,
2013-01-11 20:40:00,71.0,65.6,30.29,ENE,67,2.0,6.0,83,0.00,,,0.00,Weather View 32 v70,2013-01-12 01:40:00,
2013-01-11 20:50:00,70.0,63.5,30.29,East,90,3.0,6.0,80,0.00,,,0.00,Weather View 32 v70,2013-01-12 01:50:00,
2013-01-11 20:55:00,70.0,63.2,30.29,ENE,67,2.0,7.0,79,0.00,,,0.00,Weather View 32 v70,2013-01-12 01:55:00,
2013-01-11 21:00:00,70.0,62.8,30.29,East,90,1.0,7.0,78,0.00,,,0.00,Weather View 32 v70,2013-01-12 02:00:00,
2013-01-11 21:05:00,70.0,62.8,30.29,East,90,0.0,7.0,78,0.00,,,0.00,Weather View 32 v70,2013-01-12 02:05:00,
2013-01-11 21:10:00,70.0,62.8,30.29,ENE,67,1.0,7.0,78,0.00,,,0.00,Weather View 32 v70,2013-01-12 02:10:00,
2013-01-11 21:15:00,71.0,63.8,30.29,East,90,0.0,7.0,78,0.00,,,0.00,Weather View 32 v70,2013-01-12 02:15:00,
2013-01-11 21:20:00,71.0,63.8,30.29,East,90,2.0,7.0,78,0.00,,,0.00,Weather View 32 v70,2013-01-12 02:20:00,
2013-01-11 21:25:00,71.0,63.8,30.29,East,90,2.0,7.0,78,0.00,,,0.00,Weather View 32 v70,2013-01-12 02:25:00,
2013-01-11 21:30:00,71.0,63.8,30.29,East,90,2.0,7.0,78,0.00,,,0.00,Weather View 32 v70,2013-01-12 02:30:00,
2013-01-11 21:35:00,71.0,63.8,30.29,East,90,6.0,7.0,78,0.00,,,0.00,Weather View 32 v70,2013-01-12 02:35:00,
2013-01-11 21:40:00,71.0,63.8,30.29,East,90,6.0,8.0,78,0.00,,,0.00,Weather View 32 v70,2013-01-12 02:40:00,
2013-01-11 21:45:00,71.0,63.8,30.29,East,90,3.0,9.0,78,0.00,,,0.00,Weather View 32 v70,2013-01-12 02:45:00,
2013-01-11 21:50:00,71.0,63.8,30.29,East,90,7.0,9.0,78,0.00,,,0.00,Weather View 32 v70,2013-01-12 02:50:00,
2013-01-11 21:55:00,71.0,63.8,30.29,East,90,2.0,9.0,78,0.00,,,0.00,Weather View 32 v70,2013-01-12 02:55:00,
2013-01-11 22:00:00,70.0,62.4,30.29,ENE,67,2.0,9.0,77,0.00,,,0.00,Weather View 32 v70,2013-01-12 03:00:00,
2013-01-11 22:05:00,70.0,62.4,30.29,East,90,0.0,9.0,77,0.00,,,0.00,Weather View 32 v70,2013-01-12 03:05:00,
2013-01-11 22:10:00,70.0,62.1,30.29,East,90,2.0,9.0,76,0.00,,,0.00,Weather View 32 v70,2013-01-12 03:10:00,
2013-01-11 22:15:00,70.0,62.1,30.29,East,90,0.0,9.0,76,0.00,,,0.00,Weather View 32 v70,2013-01-12 03:15:00,
2013-01-11 22:20:00,70.0,61.7,30.29,East,90,0.0,9.0,75,0.00,,,0.00,Weather View 32 v70,2013-01-12 03:20:00,
2013-01-11 22:25:00,70.0,61.7,30.29,East,90,1.0,9.0,75,0.00,,,0.00,Weather View 32 v70,2013-01-12 03:25:00,
2013-01-11 22:30:00,70.0,61.7,30.29,East,90,1.0,9.0,75,0.00,,,0.00,Weather View 32 v70,2013-01-12 03:30:00,
2013-01-11 22:40:00,70.0,61.7,30.29,ENE,67,6.0,9.0,75,0.00,,,0.00,Weather View 32 v70,2013-01-12 03:40:00,
2013-01-11 22:45:00,70.0,61.7,30.29,East,90,5.0,9.0,75,0.00,,,0.00,Weather View 32 v70,2013-01-12 03:45:00,
2013-01-11 22:50:00,70.0,61.7,30.29,East,90,4.0,7.0,75,0.00,,,0.00,Weather View 32 v70,2013-01-12 03:50:00,
2013-01-11 22:55:00,70.0,61.3,30.29,ENE,67,2.0,7.0,74,0.00,,,0.00,Weather View 32 v70,2013-01-12 03:55:00,
2013-01-11 23:00:00,69.0,60.3,30.29,East,90,0.0,7.0,74,0.00,,,0.00,Weather View 32 v70,2013-01-12 04:00:00,
2013-01-11 23:05:00,69.0,60.0,30.29,ENE,67,0.0,7.0,73,0.00,,,0.00,Weather View 32 v70,2013-01-12 04:05:00,
2013-01-11 23:10:00,69.0,60.0,30.29,ENE,67,0.0,7.0,73,0.00,,,0.00,Weather View 32 v70,2013-01-12 04:10:00,
2013-01-11 23:15:00,69.0,59.6,30.30,ENE,67,2.0,7.0,72,0.00,,,0.00,Weather View 32 v70,2013-01-12 04:15:00,
2013-01-11 23:25:00,69.0,59.2,30.30,ENE,67,0.0,7.0,71,0.00,,,0.00,Weather View 32 v70,2013-01-12 04:25:00,
2013-01-11 23:30:00,69.0,59.2,30.30,East,90,0.0,7.0,71,0.00,,,0.00,Weather View 32 v70,2013-01-12 04:30:00,
2013-01-11 23:35:00,69.0,59.2,30.30,ENE,67,3.0,7.0,71,0.00,,,0.00,Weather View 32 v70,2013-01-12 04:35:00,
2013-01-11 23:40:00,69.0,59.2,30.30,East,90,2.0,7.0,71,0.00,,,0.00,Weather View 32 v70,2013-01-12 04:40:00,
2013-01-11 23:45:00,69.0,58.8,30.30,East,90,0.0,7.0,70,0.00,,,0.00,Weather View 32 v70,2013-01-12 04:45:00,
2013-01-11 23:55:00,69.0,58.8,30.30,ENE,67,2.0,7.0,70,0.00,,,0.00,Weather View 32 v70,2013-01-12 04:55:00,